Location: Unspecified
(39.0339°N, 0.0000°E)
Time: 00:30:50
(UTC+00:00)

SO-50 - Visible Passes

Search period start: 04 April 2026 00:00
Search period end: 14 April 2026 00:00
Orbit: 568 x 673 km, 64.6° (Epoch: 29 March)

Date Brightness Start Highest point End Pass type
(mag) Time Alt. Az. Time Alt. Az. Time Alt. Az.
4 Apr ? 19:21:48 10° NNE 19:23:00 11° NE 19:24:11 10° NE visible
4 Apr ? 20:59:09 10° NNW 21:02:33 43° N 21:02:33 43° N visible
5 Apr ? 19:37:47 10° N 19:41:10 19° NE 19:42:50 16° ENE visible
5 Apr ? 21:16:50 10° NW 21:20:00 39° WNW 21:20:00 39° WNW visible
6 Apr ? 19:54:48 10° NNW 19:59:08 33° NE 20:00:20 29° E visible
6 Apr ? 21:34:56 10° NW 21:37:30 24° W 21:37:30 24° W visible
7 Apr ? 20:12:09 10° NNW 20:16:56 66° ENE 20:17:54 51° ESE visible
7 Apr ? 21:54:03 10° W 21:55:04 12° W 21:55:04 12° W visible
8 Apr ? 18:50:45 10° N 18:54:10 19° NE 18:57:33 10° E visible
8 Apr ? 20:29:50 10° NW 20:34:31 59° WSW 20:35:31 47° SSW visible
9 Apr ? 19:07:45 10° NNW 19:12:07 34° NE 19:16:03 12° ESE visible
9 Apr ? 20:47:56 10° NW 20:51:57 27° WSW 20:53:14 24° SW visible
10 Apr ? 19:25:07 10° NNW 19:29:53 68° ENE 19:33:50 14° SE visible
10 Apr ? 21:07:08 10° W 21:09:13 13° WSW 21:11:01 11° SW visible
11 Apr ? 19:42:47 10° NW 19:47:28 57° WSW 19:51:42 12° SSE visible
12 Apr ? 20:00:55 10° NW 20:04:53 27° WSW 20:08:45 10° S visible
13 Apr ? 20:20:12 10° W 20:22:08 12° WSW 20:24:02 10° SW visible
